• In Hungary
  • List of Countries
  • For 7 days
  • Water Temperature
  • Satellite Maps
  • Weather Map
  • News
  • Weather Widgets
  • user-avatar
    Login

    Hourly Weather Blazek

    Today, 19 October, Friday

    Time Temperature Precipitation Wind Pressure Humidity
    00:00 +12°C° 0 mm 1 mps 737 mmHg 71%
    01:00 +11°C° 0 mm 1 mps 737 mmHg 72%
    02:00 +11°C° 0 mm 1 mps 737 mmHg 73%
    03:00 +11°C° 0 mm 1 mps 737 mmHg 73%
    04:00 +10°C° 0 mm 2 mps 737 mmHg 73%
    05:00 +10°C° 0 mm 2 mps 737 mmHg 73%
    06:00 +11°C° 0 mm 1 mps 737 mmHg 73%
    07:00 +11°C° 0 mm 1 mps 737 mmHg 73%
    08:00 +13°C° 0 mm 2 mps 738 mmHg 66%
    09:00 +15°C° 0 mm 2 mps 738 mmHg 60%
    10:00 +16°C° 0 mm 2 mps 738 mmHg 54%
    11:00 +17°C° 0 mm 2 mps 738 mmHg 52%
    12:00 +18°C° 0 mm 3 mps 738 mmHg 50%
    13:00 +19°C° 0 mm 3 mps 738 mmHg 48%
    14:00 +18°C° 0 mm 3 mps 738 mmHg 52%
    15:00 +17°C° 0 mm 2 mps 738 mmHg 56%
    16:00 +16°C° 0 mm 2 mps 738 mmHg 60%
    17:00 +15°C° 0 mm 2 mps 739 mmHg 64%
    18:00 +14°C° 0 mm 2 mps 739 mmHg 67%
    19:00 +13°C° 0 mm 2 mps 739 mmHg 71%
    20:00 +12°C° 0 mm 2 mps 739 mmHg 74%
    21:00 +12°C° 0 mm 2 mps 740 mmHg 76%
    22:00 +10°C° 0 mm 2 mps 740 mmHg 79%
    23:00 +10°C° 0 mm 2 mps 740 mmHg 81%

    Tomorrow, 20 October, Saturday

    Time Temperature Precipitation Wind Pressure Humidity
    00:00 +9°C° 0 mm 2 mps 740 mmHg 84%
    01:00 +9°C° 0 mm 2 mps 740 mmHg 86%
    02:00 +9°C° 0 mm 2 mps 740 mmHg 88%
    03:00 +8°C° 0 mm 2 mps 740 mmHg 90%
    04:00 +8°C° 0 mm 2 mps 741 mmHg 92%
    05:00 +8°C° 0 mm 2 mps 741 mmHg 93%
    06:00 +8°C° 0 mm 2 mps 741 mmHg 94%
    07:00 +8°C° 0 mm 2 mps 741 mmHg 94%
    08:00 +9°C° 0 mm 2 mps 742 mmHg 87%
    09:00 +12°C° 0 mm 2 mps 742 mmHg 80%
    10:00 +13°C° 0 mm 2 mps 742 mmHg 72%
    11:00 +13°C° 0 mm 3 mps 742 mmHg 66%
    12:00 +13°C° 0 mm 3 mps 742 mmHg 60%
    13:00 +14°C° 0 mm 3 mps 742 mmHg 54%
    14:00 +13°C° 0 mm 3 mps 742 mmHg 55%
    15:00 +12°C° 0 mm 3 mps 742 mmHg 55%
    16:00 +13°C° 0 mm 2 mps 742 mmHg 56%
    17:00 +12°C° 0 mm 2 mps 742 mmHg 60%
    18:00 +10°C° 0 mm 2 mps 742 mmHg 63%
    19:00 +8°C° 0 mm 2 mps 742 mmHg 67%
    20:00 +8°C° 0 mm 2 mps 742 mmHg 70%
    21:00 +8°C° 0 mm 2 mps 742 mmHg 73%
    22:00 +7°C° 0 mm 2 mps 742 mmHg 76%
    23:00 +7°C° 0 mm 2 mps 742 mmHg 78%

    Day after tomorrow, 21 October, Sunday

    Time Temperature Precipitation Wind Pressure Humidity
    00:00 +5°C° 0 mm 3 mps 742 mmHg 79%
    01:00 +5°C° 0 mm 3 mps 742 mmHg 81%
    02:00 +5°C° 0 mm 3 mps 742 mmHg 80%
    03:00 +5°C° 0 mm 3 mps 742 mmHg 80%
    04:00 +5°C° 0 mm 3 mps 741 mmHg 80%
    05:00 +6°C° 0.1 mm 4 mps 742 mmHg 80%
    06:00 +6°C° 0.1 mm 4 mps 742 mmHg 81%
    07:00 +6°C° 0.1 mm 4 mps 742 mmHg 81%
    08:00 +7°C° 0 mm 4 mps 742 mmHg 76%
    09:00 +8°C° 0 mm 5 mps 742 mmHg 71%
    10:00 +9°C° 0 mm 5 mps 741 mmHg 67%
    11:00 +9°C° 0.1 mm 5 mps 741 mmHg 65%
    12:00 +9°C° 0.1 mm 5 mps 741 mmHg 63%
    13:00 +9°C° 0.1 mm 5 mps 741 mmHg 61%
    14:00 +9°C° 0.1 mm 5 mps 741 mmHg 62%
    15:00 +8°C° 0.1 mm 4 mps 741 mmHg 63%
    16:00 +7°C° 0.1 mm 4 mps 741 mmHg 65%
    17:00 +7°C° 0 mm 4 mps 741 mmHg 67%
    18:00 +7°C° 0 mm 3 mps 741 mmHg 69%
    19:00 +7°C° 0 mm 3 mps 741 mmHg 71%
    20:00 +7°C° 0 mm 2 mps 741 mmHg 71%
    21:00 +7°C° 0 mm 2 mps 741 mmHg 71%
    22:00 +7°C° 0 mm 2 mps 741 mmHg 71%
    23:00 +6°C° 0 mm 2 mps 741 mmHg 75%

    22 October, Monday

    Time Temperature Precipitation Wind Pressure Humidity
    00:00 +5°C° 0 mm 2 mps 741 mmHg 79%
    01:00 +5°C° 0 mm 1 mps 741 mmHg 82%
    02:00 +5°C° 0 mm 1 mps 741 mmHg 84%
    03:00 +5°C° 0 mm 1 mps 741 mmHg 86%
    04:00 +4°C° 0 mm 1 mps 741 mmHg 87%
    05:00 +3°C° 0 mm 0 mps 741 mmHg 87%
    06:00 +4°C° 0 mm 0 mps 741 mmHg 86%
    07:00 +4°C° 0 mm 0 mps 742 mmHg 85%
    08:00 +7°C° 0 mm 1 mps 742 mmHg 77%
    09:00 +8°C° 0 mm 1 mps 742 mmHg 68%
    10:00 +9°C° 0 mm 2 mps 742 mmHg 60%
    11:00 +10°C° 0 mm 2 mps 741 mmHg 56%
    12:00 +12°C° 0 mm 2 mps 741 mmHg 51%
    13:00 +12°C° 0 mm 3 mps 740 mmHg 47%
    14:00 +12°C° 0 mm 2 mps 740 mmHg 50%
    15:00 +10°C° 0 mm 2 mps 740 mmHg 53%
    16:00 +9°C° 0 mm 2 mps 739 mmHg 56%
    17:00 +9°C° 0 mm 2 mps 739 mmHg 59%
    18:00 +8°C° 0 mm 2 mps 739 mmHg 63%
    19:00 +7°C° 0 mm 3 mps 739 mmHg 66%
    20:00 +7°C° 0.1 mm 3 mps 739 mmHg 68%
    21:00 +7°C° 0.1 mm 3 mps 738 mmHg 71%
    22:00 +7°C° 0.1 mm 3 mps 738 mmHg 73%
    23:00 +7°C° 0.8 mm 3 mps 738 mmHg 78%

    23 October, Tuesday

    Time Temperature Precipitation Wind Pressure Humidity
    00:00 +7°C° 0.8 mm 3 mps 737 mmHg 82%
    01:00 +7°C° 0.8 mm 3 mps 737 mmHg 87%
    02:00 +7°C° 0.9 mm 3 mps 737 mmHg 88%
    03:00 +6°C° 0.9 mm 4 mps 736 mmHg 88%
    04:00 +5°C° 0.9 mm 4 mps 736 mmHg 89%
    05:00 +5°C° 0.3 mm 4 mps 736 mmHg 87%
    06:00 +5°C° 0.3 mm 3 mps 735 mmHg 86%
    07:00 +4°C° 0.3 mm 3 mps 735 mmHg 84%
    08:00 +5°C° 0 mm 3 mps 735 mmHg 78%
    09:00 +7°C° 0 mm 3 mps 735 mmHg 73%
    10:00 +7°C° 0 mm 4 mps 735 mmHg 67%
    11:00 +8°C° 0 mm 3 mps 734 mmHg 65%
    12:00 +8°C° 0 mm 3 mps 734 mmHg 62%
    13:00 +8°C° 0 mm 3 mps 733 mmHg 60%
    14:00 +8°C° 0.1 mm 3 mps 732 mmHg 63%
    15:00 +7°C° 0.1 mm 3 mps 732 mmHg 65%
    16:00 +7°C° 0.1 mm 3 mps 731 mmHg 68%
    17:00 +6°C° 0 mm 2 mps 731 mmHg 72%
    18:00 +5°C° 0 mm 2 mps 731 mmHg 76%
    19:00 +4°C° 0 mm 2 mps 730 mmHg 80%
    20:00 +4°C° 0 mm 2 mps 730 mmHg 81%
    21:00 +4°C° 0 mm 2 mps 730 mmHg 83%
    22:00 +3°C° 0 mm 2 mps 730 mmHg 84%
    23:00 +3°C° 0 mm 2 mps 729 mmHg 84%

    24 October, Wednesday

    Time Temperature Precipitation Wind Pressure Humidity
    00:00 +3°C° 0 mm 2 mps 729 mmHg 85%
    01:00 +3°C° 0 mm 2 mps 729 mmHg 85%
    02:00 +3°C° 0 mm 2 mps 729 mmHg 85%
    03:00 +3°C° 0 mm 2 mps 729 mmHg 85%
    04:00 +4°C° 0 mm 1 mps 729 mmHg 85%
    05:00 +4°C° 0 mm 2 mps 729 mmHg 85%
    06:00 +4°C° 0 mm 2 mps 729 mmHg 85%
    07:00 +4°C° 0 mm 2 mps 729 mmHg 84%
    08:00 +5°C° 0 mm 2 mps 729 mmHg 81%
    09:00 +5°C° 0 mm 3 mps 730 mmHg 78%
    10:00 +7°C° 0 mm 3 mps 730 mmHg 75%
    11:00 +8°C° 0.1 mm 3 mps 729 mmHg 73%
    12:00 +8°C° 0.1 mm 3 mps 729 mmHg 70%
    13:00 +8°C° 0.1 mm 3 mps 729 mmHg 68%
    14:00 +8°C° 0.2 mm 3 mps 728 mmHg 71%
    15:00 +7°C° 0.2 mm 3 mps 728 mmHg 74%
    16:00 +6°C° 0.2 mm 4 mps 728 mmHg 77%
    17:00 +5°C° 0.1 mm 3 mps 728 mmHg 80%
    18:00 +5°C° 0.1 mm 3 mps 728 mmHg 82%
    19:00 +4°C° 0.1 mm 3 mps 727 mmHg 85%
    20:00 +4°C° 0.1 mm 3 mps 728 mmHg 85%
    21:00 +4°C° 0.1 mm 3 mps 728 mmHg 84%
    22:00 +4°C° 0.1 mm 3 mps 728 mmHg 84%
    23:00 +3°C° 0 mm 3 mps 728 mmHg 85%
    Show more